Lid_Strength_Index
-1 -1 -1 2 8 8 11 10 7 8 8 5 5 6 7 6 8 11 1 0 -0 -0 -1 -1 -1 -1 -1 -1 -1 -1 -2 -1 -1 -2 -2 -2 -2 -2 -2 -1 -1 -1 -2 -1 -2 -2 -2 -2 -2
-1 0 1 4 9 11 11 8 9 7 6 4 4 5 6 8 4 3 2 0 -0 -1 -1 -1 -1 -1 -1 -1 -1 -1 -2 -2 -1 -1 -2 -2 -2 -2 -1 -1 -1 -1 -2 -2 -2 -2 -2 -2 -2
-0 0 5 5 9 11 11 8 8 6 5 5 6 4 5 6 3 3 0 -0 -0 -0 -1 -1 -1 -1 -1 -1 -1 -1 -2 -2 -1 -2 -2 -2 -2 -2 -2 -2 -2 -2 -2 -2 -2 -2 -2 -2 -2
1 3 4 8 11 9 8 7 6 6 5 4 5 7 4 2 2 1 -0 -0 -0 -0 -1 -1 -1 -1 -1 -1 -1 -1 -2 -2 -2 -2 -2 -2 -1 -2 -1 -1 -2 -2 -2 -2 -2 -2 -2 -1 -1
1 4 8 9 10 8 6 6 5 7 6 5 5 7 6 2 0 0 0 -0 0 -0 -1 -1 -1 -1 -1 -1 -1 -2 -2 -2 -2 -2 -2 -2 -1 -1 -1 -1 -2 -2 -2 -2 -2 -2 -2 -1 -1
5 4 9 11 10 8 6 5 6 6 5 5 6 6 5 1 1 0 -0 -0 -1 -0 -1 -1 -1 -1 -1 -1 -1 -1 -2 -2 -2 -1 -2 -1 -2 -2 -1 -2 -2 -2 -2 -2 -1 -1 -1 -1 -1
5 6 9 9 10 9 7 5 6 6 6 6 4 7 5 3 1 0 -0 -1 -1 -1 -1 -1 -1 -1 -1 -1 -2 -2 -2 -2 -1 -2 -1 -2 -2 -1 -2 -2 -2 -2 -2 -1 -1 -1 -1 -1 -1
3 6 9 8 9 9 6 5 4 5 6 3 3 6 6 3 1 0 0 -0 -0 -0 -1 -1 -1 -2 -2 -2 -1 -2 -2 -2 -1 -1 -2 -2 -1 -1 -2 -2 -2 -2 -2 -1 -1 -1 -1 -1 -1
3 7 9 9 8 8 5 6 4 3 5 4 3 3 2 1 1 1 1 1 0 0 -0 -1 -1 -1 -1 -1 -1 -2 -2 -1 -1 -1 -2 -2 -1 -1 -2 -2 -1 -2 -1 -1 -1 -1 -1 -1 -1
5 7 8 6 6 7 5 5 5 5 5 5 5 3 2 1 2 2 2 2 1 1 0 -0 -0 -1 -1 -1 -1 -1 -1 -1 -1 -1 -2 -1 -2 -2 -2 -2 -1 -1 -1 -1 -1 -1 -1 -2 -2
5 7 6 6 5 5 5 5 4 6 7 5 5 4 3 2 2 2 2 1 1 1 0 -0 -0 -1 -1 -0 -1 -1 -1 -2 -1 -2 -1 -1 -2 -2 -2 -1 -2 -2 -2 -2 -2 -1 -2 -1 -1
7 5 5 5 4 5 6 5 6 5 5 3 3 3 3 3 3 2 2 1 1 1 0 -0 -1 -1 -1 -1 -1 -1 -1 -1 -1 -1 -1 -1 -1 -1 -2 -2 -2 -2 -2 -2 -2 -2 -2 -2 -1
6 6 5 4 5 5 4 5 6 5 3 3 3 3 3 3 2 2 1 1 1 1 0 -0 -1 -1 -1 -1 -1 -1 -1 -1 0 -1 -0 -2 -1 -1 -2 -2 -2 -3 -2 -2 -2 -2 -2 -1 -1
5 5 5 5 5 5 6 6 5 5 3 4 3 3 3 3 2 2 2 2 1 1 0 -0 -0 -1 -1 -1 -1 -1 -1 -1 1 -0 1 -1 -2 -2 -2 -2 -2 -2 -2 -3 -2 -1 -1 -1 -1
5 7 6 6 5 6 5 7 7 4 4 4 4 3 3 3 2 2 2 1 1 0 0 -0 -0 -1 -1 -1 -1 -1 -1 -0 1 1 1 -1 -2 -2 -1 -2 -2 -2 -2 -2 -1 -1 -1 -1 -1
7 7 10 7 6 6 6 9 6 4 4 5 4 4 4 3 2 2 1 1 0 0 0 -0 -0 -1 -1 -1 -1 -1 -1 -0 -0 -0 -1 -2 -2 -2 -1 -1 -1 -2 -1 -2 -1 -1 -0 -0 -0
8 10 10 9 6 6 7 8 6 4 4 5 4 4 4 3 2 2 1 1 1 0 0 -0 -1 -1 -1 -1 -1 -1 -1 -1 -1 -1 -1 -2 -1 -2 -1 -1 -1 -2 -1 -1 -1 -0 -0 0 0
10 11 10 10 7 7 8 7 6 5 5 5 5 4 4 3 3 2 1 1 0 0 0 -0 -0 -1 -1 -1 -1 -1 -1 -1 -1 -1 -1 -2 -1 -2 -1 -1 -1 -1 -1 -0 -0 -0 -0 0 0
8 9 10 8 7 7 8 7 6 5 5 5 5 4 4 4 2 2 1 1 1 0 0 0 0 -0 -0 0 1 1 1 0 -0 -1 -2 -2 -2 -2 -2 -1 -1 -1 -1 -1 -1 -0 0 1 -0
8 9 10 8 7 7 8 8 6 5 5 5 5 4 4 4 3 2 2 1 1 1 0 0 0 0 -0 0 -0 -0 -0 -0 -0 -1 -1 -2 -2 -2 -1 -2 -1 -1 -1 -0 -0 -0 1 0 0
8 9 9 10 8 7 8 9 7 6 5 4 4 4 3 4 3 3 2 2 1 1 1 1 0 -0 -0 -1 -0 -0 -0 -0 -0 -0 -0 -1 -2 -2 -2 -2 -1 -1 -1 0 -0 0 1 1 0
9 7 8 9 10 13 8 12 9 7 6 5 4 4 4 3 3 2 2 2 1 1 0 0 0 -0 -0 -1 -0 0 1 1 1 0 -1 -0 -1 -1 -1 -1 -2 -1 -1 -0 -0 -0 0 0 1
8 6 8 8 10 10 10 11 9 7 8 6 5 4 3 3 3 2 2 2 1 1 1 0 0 -0 -1 -0 -1 0 1 0 0 -0 -0 -1 -1 -1 -1 -1 -1 -1 -0 -1 -1 -0 -0 -0 1
6 7 8 8 9 13 10 11 11 8 7 6 5 4 3 3 3 2 2 1 1 1 1 0 0 0 -0 -0 -0 0 0 1 1 0 0 0 -0 -1 -1 -1 -1 -1 -1 -1 -1 -1 -1 -1 -0
7 9 13 14 14 13 9 11 9 6 5 5 5 4 3 3 3 2 2 2 2 1 1 1 0 1 0 -0 0 -0 0 0 0 0 1 0 0 -0 -1 -1 -1 -1 -1 -1 -1 -1 -0 -0 0
8 8 12 16 13 12 10 12 9 6 4 4 4 4 3 3 2 2 2 2 2 1 1 1 1 1 0 0 0 -0 -0 0 0 -0 0 0 0 -0 -1 -1 -1 -1 -1 -1 -1 -1 -1 -1 -1
8 10 7 10 9 11 10 9 7 5 5 4 4 4 3 3 3 2 2 2 1 1 1 1 1 1 0 0 0 -0 -0 -0 -0 -0 -0 -0 -1 -0 -1 -1 -1 -1 -1 -1 -1 -0 -0 -0 -0
7 6 10 9 14 14 12 10 10 7 6 5 5 4 3 3 3 2 2 2 1 1 1 0 0 1 0 0 0 0 -0 -0 -0 -0 -0 -0 -0 -1 -1 -1 -1 -1 -1 -1 -1 -0 -1 -0 -0
8 8 8 8 10 12 13 10 6 6 6 5 5 4 3 3 3 2 2 2 1 1 1 1 1 1 1 0 -0 0 0 -0 -0 -0 -0 -0 -0 -0 -0 -0 -0 0 -0 -0 -0 -0 -0 0 -0
6 7 7 10 12 9 9 10 5 5 4 4 4 3 3 3 3 2 2 2 2 1 1 1 1 1 1 0 0 0 -0 -0 0 0 0 -0 0 -0 -0 -0 0 0 0 0 1 1 1 0 1